Helicity
40 29 23 32 37 51 61 61 80 88 80 52 71 97 94 83 81 82 98 86 72 73 65 65 67 76 43 43 22 17 64 69 50 32 29 29 36 42 46 60 62 50 68 49 64 181 225
52 43 31 34 26 34 40 42 59 86 97 87 78 95 84 99 88 89 108 102 103 75 65 65 62 59 40 50 45 44 64 54 41 44 22 36 39 35 48 60 64 54 90 147 193 278 261
61 52 40 28 33 19 26 30 44 40 71 94 111 93 90 100 85 85 111 104 107 88 65 50 41 29 43 34 61 31 38 24 45 68 54 41 43 52 45 76 38 74 128 232 263 234 231
112 56 40 27 30 22 6 8 30 42 55 88 119 98 84 95 89 97 91 107 107 86 44 29 19 33 43 65 63 32 27 12 17 20 28 18 34 47 62 39 67 88 98 145 176 160 192
165 132 37 34 17 14 8 -5 12 32 51 74 100 98 100 97 108 101 101 153 89 40 17 29 46 38 41 68 46 34 21 18 20 2 -3 12 25 54 67 108 105 120 126 138 117 187 157
181 156 136 31 21 4 3 -1 3 28 44 81 98 103 97 106 117 114 145 113 27 46 32 30 34 50 27 43 22 26 15 12 16 36 47 62 84 81 77 86 76 76 80 95 108 67 359
103 160 147 84 27 26 2 7 11 26 40 85 98 113 114 122 128 118 106 63 62 50 35 33 35 45 25 22 19 27 41 46 30 89 121 128 132 87 67 57 81 99 77 98 80 115 241
147 185 153 141 30 21 7 18 13 25 40 76 108 103 120 135 141 137 59 86 80 25 50 24 29 17 19 28 48 50 55 79 86 140 131 154 143 80 70 79 95 110 164 151 173 211 236
191 164 153 158 100 22 8 17 21 38 48 65 84 102 121 151 167 74 107 88 82 31 40 42 27 29 22 34 45 79 73 89 128 125 117 121 98 76 69 62 91 77 120 139 154 204 210
152 160 154 131 136 38 8 7 13 28 55 63 72 103 125 195 51 93 96 133 83 21 60 35 37 32 34 40 68 79 99 89 122 176 207 159 117 79 89 78 91 128 148 141 182 191 150
168 169 162 157 140 57 14 5 12 25 62 63 74 85 106 62 45 58 82 133 71 35 112 26 46 42 57 76 59 96 91 124 117 108 99 97 85 76 75 60 73 88 94 131 134 149 91
159 192 186 202 147 56 13 10 14 19 50 70 79 80 88 48 48 43 147 101 52 79 71 31 33 49 76 92 81 72 107 131 120 200 217 131 103 88 58 87 93 83 155 182 151 139 122
114 178 205 221 198 63 3 16 18 17 41 85 89 88 69 46 35 86 123 71 101 94 36 35 38 43 47 66 84 103 128 172 126 133 148 139 116 92 75 77 100 99 130 95 116 141 129
106 116 182 278 231 56 18 21 19 19 38 93 98 111 26 62 58 98 88 125 86 49 49 26 34 52 60 44 62 79 90 118 150 128 115 104 97 102 87 83 89 140 90 100 112 142 136
86 112 125 217 254 147 38 28 22 17 32 80 97 40 59 58 53 57 101 125 77 51 40 50 70 60 62 56 56 61 77 83 102 128 115 112 102 101 130 95 87 99 141 130 194 171 153
63 96 118 179 187 211 58 32 23 17 29 66 50 78 77 94 45 84 130 108 75 50 45 40 45 43 41 37 56 58 54 49 77 97 106 93 124 109 98 94 139 120 128 130 129 109 107
51 79 109 154 233 233 116 37 26 31 37 80 67 106 92 104 87 128 108 91 53 64 48 57 43 50 49 64 76 70 57 51 57 69 88 120 137 129 137 140 112 138 146 153 147 138 122
51 71 101 157 216 230 198 52 41 43 60 69 82 129 103 101 152 117 69 64 66 66 81 75 64 86 76 88 100 97 93 82 54 61 113 133 150 196 159 122 129 136 130 124 106 74 113
52 70 101 168 193 200 215 58 47 42 61 99 122 120 102 122 118 89 80 79 67 59 78 64 75 89 113 121 103 103 103 94 102 113 115 135 177 204 186 146 121 128 107 76 81 99 89
45 74 103 167 193 209 196 72 42 39 75 102 123 123 123 104 90 64 59 51 70 71 59 66 85 100 120 138 154 128 127 102 106 142 183 187 211 191 168 141 121 136 135 70 47 92 85
41 68 100 155 109 200 143 61 32 38 77 111 130 125 107 58 58 47 60 47 75 65 75 95 72 100 87 106 122 140 148 133 158 135 171 181 231 230 240 189 186 174 139 69 97 94 78
31 60 93 144 119 176 141 53 29 37 67 104 148 146 141 75 53 49 66 51 56 54 80 58 82 105 103 106 92 106 146 190 191 158 159 163 206 252 293 199 238 348 260 214 180 139 127
31 53 74 154 147 167 140 98 33 37 86 114 129 99 98 81 71 45 16 37 49 60 117 101 112 177 173 85 151 196 226 225 199 190 158 128 150 200 245 124 219 309 242 135 90 73 35
23 35 69 139 184 130 129 163 54 42 87 93 121 93 102 64 73 27 44 86 91 40 77 59 71 74 25 36 82 111 168 213 233 159 66 74 122 113 98 132 145 74 105 87 38 37 38
13 18 54 108 158 110 114 148 72 59 86 76 85 108 107 57 97 103 127 106 126 189 129 62 45 50 20 45 73 72 20 44 25 21 61 36 29 -9 -14 97 76 78 90 62 79 60 47
13 11 34 94 132 174 123 136 87 73 63 69 70 112 128 90 103 111 116 84 125 94 104 82 79 3 10 46 49 25 -9 -29 -100 -56 -73 43 -3 -8 94 40 41 70 49 35 52 41 51
6 11 29 94 144 125 125 151 83 88 46 82 114 109 120 100 120 115 78 43 57 75 67 24 12 -8 -14 32 27 16 0 7 -7 12 37 59 104 72 76 29 42 39 41 13 33 39 34
9 20 44 111 110 129 159 145 87 101 64 85 130 116 106 93 137 93 79 61 88 76 10 8 3 -20 -13 0 21 11 -5 6 12 3 21 13 32 42 46 36 53 30 16 24 32 21 10
3 16 73 145 137 154 194 140 98 132 83 74 130 113 86 112 117 115 101 80 62 26 30 13 5 2 24 21 8 3 -28 -14 17 13 23 19 22 27 27 43 62 59 34 8 11 5 13
Wind_Speed
49 46 47 45 51 54 55 55 56 59 59 62 62 62 61 62 63 63 64 64 64 63 61 58 54 50 33 28 25 26 24 24 27 28 27 27 23 23 26 25 29 30 37 42 40 34 34
51 49 49 51 52 54 56 56 54 57 61 62 61 62 62 64 64 65 65 65 64 63 59 55 51 45 26 22 25 26 22 24 24 24 27 22 24 20 28 26 31 35 38 35 40 39 36
54 53 52 53 53 55 56 57 58 54 55 58 61 61 63 64 65 66 66 65 64 63 56 51 43 33 29 19 27 32 24 25 23 22 25 21 19 22 28 28 28 28 32 38 47 44 35
56 55 54 54 55 55 56 58 59 59 56 56 58 59 61 63 65 65 65 64 63 59 50 41 32 31 28 29 37 35 29 31 25 25 18 24 20 26 27 28 32 27 31 34 46 44 42
54 55 55 54 54 56 56 58 59 60 60 57 55 58 60 61 64 65 65 64 57 44 32 29 30 30 28 40 25 32 32 29 30 24 21 25 24 28 29 25 27 35 31 36 39 48 35
55 55 56 56 56 56 58 58 59 60 61 59 57 57 58 59 61 62 63 54 36 35 29 27 31 33 30 28 30 34 32 29 25 25 24 27 28 27 31 27 26 27 30 38 37 45 44
55 55 58 59 58 57 58 58 58 60 61 59 59 58 59 59 59 58 51 35 36 36 32 31 30 31 33 36 34 29 33 23 21 24 22 30 24 27 31 30 26 27 30 30 30 33 44
60 61 60 61 58 58 59 58 57 59 60 59 59 59 60 60 59 55 37 32 31 37 40 33 35 35 33 32 33 36 35 18 19 20 22 25 25 27 28 29 27 26 27 32 38 37 36
61 60 62 64 61 60 59 57 58 59 60 58 58 58 59 58 55 36 32 32 43 36 37 36 28 29 29 30 32 35 30 22 20 22 20 23 24 28 26 27 26 27 29 26 33 34 34
60 62 62 60 61 61 58 57 57 58 59 58 56 57 57 56 31 39 26 42 42 33 35 31 26 30 31 28 30 33 33 25 23 15 19 26 28 25 28 29 27 32 31 28 27 31 35
61 63 65 63 62 63 56 56 57 58 59 58 55 54 53 45 34 22 36 43 38 27 35 26 25 29 31 28 32 35 34 28 23 19 24 25 25 25 29 32 27 31 29 25 28 33 32
61 63 65 67 67 65 57 56 56 57 59 58 55 54 51 37 32 24 44 40 27 30 34 25 26 27 26 29 30 33 29 27 24 27 25 21 25 29 28 31 33 25 29 31 31 33 37
60 62 64 65 67 64 57 56 55 57 59 58 56 55 51 37 21 40 41 19 23 28 26 26 26 25 26 28 29 31 29 27 28 24 27 27 29 30 27 27 37 26 25 35 36 36 37
59 60 62 64 63 60 56 56 55 55 57 57 57 57 40 30 33 39 24 14 23 25 21 27 24 22 27 27 30 30 28 29 33 29 24 24 28 33 33 29 30 26 26 30 38 36 36
59 60 60 61 61 59 57 56 53 53 55 55 54 42 39 32 25 20 13 15 20 18 26 25 24 26 27 29 28 30 33 31 32 32 26 25 27 27 30 33 28 27 30 27 32 34 35
59 59 58 57 57 57 57 55 52 50 51 48 44 40 35 32 14 17 16 20 18 24 31 24 22 25 25 26 31 32 32 32 31 31 28 24 29 31 28 32 38 29 23 30 32 34 37
59 59 58 58 57 56 55 53 50 49 47 46 37 34 31 27 19 17 19 15 18 28 28 26 22 28 30 29 31 33 32 34 32 31 28 27 31 33 32 38 36 31 27 31 29 32 35
60 59 58 58 59 55 53 51 49 47 45 37 33 35 32 23 18 20 15 13 24 28 32 32 32 35 33 33 34 35 36 35 32 31 30 30 30 34 34 33 34 31 26 23 29 30 32
62 60 58 57 57 57 53 50 48 44 39 38 35 33 29 24 22 18 16 15 27 30 33 37 37 38 35 31 36 33 34 33 35 32 28 26 34 33 37 38 32 32 29 23 23 27 29
63 61 59 58 57 57 54 51 47 43 39 35 34 31 28 25 24 13 7 11 20 32 34 35 35 30 30 36 39 34 36 36 36 33 30 31 34 35 38 37 29 29 25 16 27 27 24
64 63 60 58 57 57 56 54 48 43 40 35 33 34 29 24 24 11 12 15 20 31 33 34 31 33 30 34 37 38 36 35 37 35 36 35 36 35 35 30 25 23 21 21 23 23 29
65 64 61 59 58 57 54 55 49 44 39 39 35 31 31 28 17 4 19 22 21 26 32 30 29 33 33 36 37 36 33 42 41 41 38 36 35 29 32 23 19 20 23 21 24 27 29
66 65 63 61 60 59 56 58 52 45 43 42 39 38 33 30 18 10 14 19 20 15 31 24 28 33 37 37 39 41 42 45 44 39 38 37 24 27 30 14 17 24 25 22 23 26 25
67 66 65 63 62 62 61 56 59 51 52 42 38 37 35 30 21 16 17 22 11 21 18 25 28 32 33 42 43 46 51 56 59 51 33 21 20 26 16 16 24 14 22 19 20 22 23
68 67 66 63 63 63 65 61 64 57 56 56 43 33 35 28 22 13 12 6 12 19 21 23 29 36 39 41 46 50 53 51 55 56 41 26 24 23 13 13 13 17 30 27 24 22 25
69 68 66 64 66 68 68 65 68 62 56 54 50 44 41 30 31 26 12 5 12 14 17 20 30 38 40 46 50 56 58 54 56 47 54 19 34 35 46 32 33 48 40 36 33 24 26
70 70 68 66 67 69 68 67 68 64 57 53 48 47 37 31 36 29 24 9 10 14 14 20 36 36 40 46 54 55 58 50 57 54 47 47 41 45 43 40 40 46 41 37 32 32 25
71 71 70 68 68 68 68 68 68 66 60 56 48 53 38 33 32 31 30 21 18 18 27 35 35 35 39 44 48 48 52 50 53 49 48 45 46 43 40 42 45 44 40 38 36 29 23
73 73 73 71 72 73 72 71 69 70 62 58 50 43 40 30 27 25 20 27 35 22 18 44 35 40 40 44 43 44 48 46 48 50 40 45 43 42 39 43 43 38 37 31 30 26 22
Wind_Direction
296 304 308 320 308 296 296 296 298 305 305 309 307 304 305 304 306 305 303 301 299 296 296 298 300 303 336 333 344 0 29 29 18 9 1 2 2 359 355 4 356 352 344 346 353 6 9
292 295 299 302 305 304 297 299 293 295 303 308 305 304 305 304 305 304 302 300 298 295 294 297 303 308 340 333 356 5 23 17 15 10 0 8 7 13 355 351 349 348 353 353 1 1 5
287 289 292 294 301 300 307 298 302 289 287 291 299 304 305 304 304 304 300 298 298 296 297 300 312 323 323 330 329 336 3 3 7 3 349 1 18 4 355 348 354 2 6 7 345 347 2
285 286 287 291 294 297 297 302 302 296 290 287 290 296 302 304 303 301 301 297 293 293 298 311 327 325 323 311 308 325 345 351 358 357 15 358 13 354 349 352 349 354 357 353 346 345 351
287 286 285 288 292 293 297 297 301 299 297 293 287 292 293 300 301 305 303 293 290 303 323 330 325 323 324 300 336 328 342 345 348 4 10 8 1 349 349 353 354 350 354 355 355 346 359
287 285 285 285 289 293 294 296 301 302 302 299 293 294 295 293 295 302 302 298 317 320 328 325 319 320 324 332 336 330 344 335 340 346 352 342 343 352 350 353 349 352 354 355 357 1 13
286 285 285 283 285 290 291 295 300 303 306 304 301 299 295 295 294 298 301 312 308 307 309 309 322 316 324 327 322 338 338 343 343 346 345 338 355 355 352 358 7 6 5 14 22 18 7
281 285 283 283 282 285 289 294 299 303 305 307 304 302 297 295 292 293 307 314 318 309 303 306 308 314 321 329 330 327 330 344 335 340 348 346 354 357 5 10 13 18 19 5 1 9 15
283 284 283 281 280 282 286 293 297 300 303 304 306 301 301 295 287 321 309 310 299 311 306 305 312 318 323 328 335 326 329 340 335 331 340 340 350 350 2 4 8 5 358 6 1 18 37
286 281 281 283 279 278 283 289 294 298 300 300 303 302 304 293 340 308 325 292 302 320 310 311 313 313 317 325 332 326 320 328 333 5 6 350 346 359 359 351 356 352 4 15 28 16 8
284 282 277 279 279 276 281 286 291 295 297 297 296 300 304 315 334 4 299 280 293 329 308 324 324 321 325 325 319 313 323 321 326 333 336 341 350 358 353 347 356 355 4 23 24 20 24
285 283 277 275 275 274 276 281 288 292 293 293 292 295 302 318 329 324 271 273 311 323 309 332 335 334 332 326 322 309 319 339 340 340 351 352 354 350 349 355 350 8 7 12 16 15 2
286 286 277 277 275 269 271 277 283 289 289 289 289 288 294 311 352 287 278 328 330 314 336 334 338 344 346 333 328 313 314 320 320 326 325 337 342 342 346 349 350 360 10 357 357 357 356
286 286 280 275 274 268 267 272 279 287 289 287 286 283 300 310 297 283 323 4 327 333 329 340 351 353 335 340 329 329 326 319 320 322 326 326 330 330 338 342 345 350 354 357 347 352 358
285 284 281 274 272 266 264 267 276 286 289 287 288 295 294 298 303 322 3 325 335 346 328 333 340 334 334 331 335 329 323 323 321 322 321 327 328 341 351 347 346 350 349 6 0 1 358
282 281 281 274 271 266 260 264 272 284 289 290 290 289 289 292 328 330 323 326 338 324 319 334 341 335 335 332 329 328 326 329 328 331 329 327 324 325 336 335 343 344 12 355 357 353 353
279 279 279 271 268 264 260 262 269 279 286 283 288 283 292 294 311 317 302 328 331 310 322 331 334 337 328 329 326 328 332 333 334 331 331 324 322 321 326 327 328 336 341 354 3 359 355
273 274 274 271 263 262 261 259 264 274 280 281 281 274 286 292 295 305 304 327 307 311 307 312 316 312 319 322 324 324 327 332 335 330 325 325 327 318 317 327 339 342 339 349 344 349 0
269 271 271 270 261 257 259 255 259 269 274 271 270 278 284 285 287 293 313 325 298 304 303 301 307 310 320 327 328 336 337 339 333 327 326 325 319 317 317 317 327 332 339 350 5 8 358
265 266 266 267 258 255 255 250 255 262 263 265 267 268 276 273 298 301 336 335 308 290 298 307 313 332 337 332 334 335 333 338 337 334 332 325 316 314 310 317 324 325 341 5 352 353 13
261 261 263 263 256 253 250 244 250 256 254 256 260 263 268 261 277 306 312 323 302 294 304 316 330 334 342 341 338 337 340 340 339 333 327 321 313 314 319 323 333 337 337 341 354 13 1
258 257 259 259 254 250 249 240 244 248 246 246 253 262 264 279 275 311 291 294 306 302 306 324 345 349 352 346 345 344 348 338 335 330 326 325 313 316 318 333 350 352 353 11 14 17 27
255 254 254 254 251 247 245 237 238 242 237 240 249 254 256 266 249 278 294 303 303 345 332 16 31 15 12 17 28 27 24 7 350 333 324 320 314 313 306 321 332 326 340 3 15 17 9
253 251 250 251 248 243 241 241 233 235 231 237 245 249 247 255 248 273 292 290 324 317 33 7 24 26 56 63 45 31 21 10 0 350 344 344 337 329 310 319 309 333 305 325 5 357 347
250 248 247 250 245 242 239 238 229 231 231 229 239 243 243 252 244 268 284 344 18 22 19 16 2 63 83 46 32 20 20 22 19 13 6 21 23 17 27 13 320 273 234 241 242 255 232
248 245 245 247 244 241 236 235 226 226 228 228 233 237 237 240 246 244 261 313 57 18 343 10 45 71 61 51 46 36 42 60 64 90 68 182 168 167 173 195 203 182 192 198 204 239 213
245 243 243 246 242 234 232 231 222 223 224 225 229 227 235 241 233 236 250 275 305 304 28 49 85 70 75 70 59 67 70 91 88 103 111 128 142 151 158 163 171 179 187 189 197 193 221
244 241 240 241 237 231 230 225 220 219 220 219 225 223 234 237 233 241 246 263 259 262 92 107 80 93 83 79 86 94 93 103 107 116 123 131 137 146 159 157 159 181 181 178 175 185 203
240 238 238 238 232 229 226 220 218 215 217 216 223 229 227 236 230 238 256 249 237 261 62 123 103 103 107 98 111 108 103 112 120 115 134 128 140 144 155 157 165 181 177 196 197 208 213